Year,Month,Day,Hour,Minute,Value (Times are PST for temperature in C)
2008,09,23,00,00,10.20
2008,09,23,00,01,10.20
2008,09,23,00,02,10.20
2008,09,23,00,03,10.20
2008,09,23,00,04,10.20
2008,09,23,00,05,10.10
2008,09,23,00,06,10.10
2008,09,23,00,07,10.10
2008,09,23,00,08,10.10
2008,09,23,00,09,10.00
2008,09,23,00,10,10.00
2008,09,23,00,11,10.00
2008,09,23,00,12,10.00
2008,09,23,00,13,9.90
2008,09,23,00,14,9.90
2008,09,23,00,15,9.90
2008,09,23,00,16,9.90
2008,09,23,00,17,9.90
2008,09,23,00,18,9.90
2008,09,23,00,19,9.90
2008,09,23,00,20,9.80
2008,09,23,00,21,9.80
2008,09,23,00,22,9.80
2008,09,23,00,23,9.80
2008,09,23,00,24,9.70
2008,09,23,00,25,9.70
2008,09,23,00,26,9.80
2008,09,23,00,27,9.80
2008,09,23,00,28,9.80
2008,09,23,00,29,9.80
2008,09,23,00,30,9.80
2008,09,23,00,31,9.80
2008,09,23,00,32,9.80
2008,09,23,00,33,9.80
2008,09,23,00,34,9.80
2008,09,23,00,35,9.80
2008,09,23,00,36,9.80
2008,09,23,00,37,9.80
2008,09,23,00,38,9.80
2008,09,23,00,39,9.80
2008,09,23,00,40,9.80
2008,09,23,00,41,9.80
2008,09,23,00,42,9.80
2008,09,23,00,43,9.90
2008,09,23,00,44,9.90
2008,09,23,00,45,9.90
2008,09,23,00,46,9.90
2008,09,23,00,47,9.90
2008,09,23,00,48,9.90
2008,09,23,00,49,9.90
2008,09,23,00,50,9.90
2008,09,23,00,51,9.90
2008,09,23,00,52,9.80
2008,09,23,00,53,9.80
2008,09,23,00,54,9.80
2008,09,23,00,55,9.80
2008,09,23,00,56,9.80
2008,09,23,00,57,9.80
2008,09,23,00,58,9.80
2008,09,23,00,59,9.70
2008,09,23,01,00,9.70
2008,09,23,01,01,9.60
2008,09,23,01,02,9.60
2008,09,23,01,03,9.60
2008,09,23,01,04,9.60
2008,09,23,01,05,9.50
2008,09,23,01,06,9.50
2008,09,23,01,07,9.50
2008,09,23,01,08,9.40
2008,09,23,01,09,9.40
2008,09,23,01,10,9.40
2008,09,23,01,11,9.40
2008,09,23,01,12,9.40
2008,09,23,01,13,9.40
2008,09,23,01,14,9.40
2008,09,23,01,15,9.40
2008,09,23,01,16,9.40
2008,09,23,01,17,9.30
2008,09,23,01,18,9.30
2008,09,23,01,19,9.30
2008,09,23,01,20,9.30
2008,09,23,01,21,9.30
2008,09,23,01,22,9.30
2008,09,23,01,23,9.30
2008,09,23,01,24,9.30
2008,09,23,01,25,9.30
2008,09,23,01,26,9.30
2008,09,23,01,27,9.30
2008,09,23,01,28,9.30
2008,09,23,01,29,9.30
2008,09,23,01,30,9.30
2008,09,23,01,31,9.30
2008,09,23,01,32,9.30
2008,09,23,01,33,9.30
2008,09,23,01,34,9.30
2008,09,23,01,35,9.30
2008,09,23,01,36,9.30
2008,09,23,01,37,9.20
2008,09,23,01,38,9.20
2008,09,23,01,39,9.20
2008,09,23,01,40,9.20
2008,09,23,01,41,9.20
2008,09,23,01,42,9.20
2008,09,23,01,43,9.20
2008,09,23,01,44,9.10
2008,09,23,01,45,9.10
2008,09,23,01,46,9.10
2008,09,23,01,47,9.10
2008,09,23,01,48,9.00
2008,09,23,01,49,9.00
2008,09,23,01,50,8.90
2008,09,23,01,51,8.90
2008,09,23,01,52,8.90
2008,09,23,01,53,8.90
2008,09,23,01,54,8.90
2008,09,23,01,55,8.90
2008,09,23,01,56,8.90
2008,09,23,01,57,8.80
2008,09,23,01,58,8.80
2008,09,23,01,59,8.80
2008,09,23,02,00,8.80
2008,09,23,02,01,8.80
2008,09,23,02,02,8.80
2008,09,23,02,03,8.80
2008,09,23,02,04,8.70
2008,09,23,02,05,8.70
2008,09,23,02,06,8.70
2008,09,23,02,07,8.70
2008,09,23,02,08,8.60
2008,09,23,02,09,8.60
2008,09,23,02,10,8.60
2008,09,23,02,11,8.50
2008,09,23,02,12,8.50
2008,09,23,02,13,8.40
2008,09,23,02,14,8.40
2008,09,23,02,15,8.30
2008,09,23,02,16,8.30
2008,09,23,02,17,8.20
2008,09,23,02,18,8.20
2008,09,23,02,19,8.10
2008,09,23,02,20,8.00
2008,09,23,02,21,8.00
2008,09,23,02,22,7.90
2008,09,23,02,23,7.90
2008,09,23,02,24,7.80
2008,09,23,02,25,7.80
2008,09,23,02,26,7.80
2008,09,23,02,27,7.70
2008,09,23,02,28,7.60
2008,09,23,02,29,7.60
2008,09,23,02,30,7.50
2008,09,23,02,31,7.40
2008,09,23,02,32,7.40
2008,09,23,02,33,7.30
2008,09,23,02,34,7.30
2008,09,23,02,35,7.20
2008,09,23,02,36,7.20
2008,09,23,02,37,7.20
2008,09,23,02,38,7.20
2008,09,23,02,39,7.10
2008,09,23,02,40,7.10
2008,09,23,02,41,7.10
2008,09,23,02,42,7.10
2008,09,23,02,43,7.00
2008,09,23,02,44,7.00
2008,09,23,02,45,6.90
2008,09,23,02,46,6.90
2008,09,23,02,47,6.90
2008,09,23,02,48,6.90
2008,09,23,02,49,6.80
2008,09,23,02,50,6.80
2008,09,23,02,51,6.70
2008,09,23,02,52,6.70
2008,09,23,02,53,6.70
2008,09,23,02,54,6.70
2008,09,23,02,55,6.60
2008,09,23,02,56,6.60
2008,09,23,02,57,6.50
2008,09,23,02,58,6.50
2008,09,23,02,59,6.40
2008,09,23,03,00,6.40
2008,09,23,03,01,6.40
2008,09,23,03,02,6.40
2008,09,23,03,03,6.30
2008,09,23,03,04,6.30
2008,09,23,03,05,6.30
2008,09,23,03,06,6.30
2008,09,23,03,07,6.20
2008,09,23,03,08,6.20
2008,09,23,03,09,6.20
2008,09,23,03,10,6.20
2008,09,23,03,11,6.20
2008,09,23,03,12,6.10
2008,09,23,03,13,6.10
2008,09,23,03,14,6.10
2008,09,23,03,15,6.10
2008,09,23,03,16,6.10
2008,09,23,03,17,6.00
2008,09,23,03,18,6.00
2008,09,23,03,19,6.00
2008,09,23,03,20,6.00
2008,09,23,03,21,5.90
2008,09,23,03,22,5.90
2008,09,23,03,23,5.90
2008,09,23,03,24,5.90
2008,09,23,03,25,5.90
2008,09,23,03,26,5.90
2008,09,23,03,27,5.90
2008,09,23,03,28,5.80
2008,09,23,03,29,5.80
2008,09,23,03,30,5.80
2008,09,23,03,31,5.80
2008,09,23,03,32,5.80
2008,09,23,03,33,5.70
2008,09,23,03,34,5.70
2008,09,23,03,35,5.70
2008,09,23,03,36,5.70
2008,09,23,03,37,5.60
2008,09,23,03,38,5.60
2008,09,23,03,39,5.60
2008,09,23,03,40,5.60
2008,09,23,03,41,5.60
2008,09,23,03,42,5.60
2008,09,23,03,43,5.60
2008,09,23,03,44,5.60
2008,09,23,03,45,5.50
2008,09,23,03,46,5.50
2008,09,23,03,47,5.50
2008,09,23,03,48,5.50
2008,09,23,03,49,5.50
2008,09,23,03,50,5.40
2008,09,23,03,51,5.40
2008,09,23,03,52,5.40
2008,09,23,03,53,5.40
2008,09,23,03,54,5.40
2008,09,23,03,55,5.40
2008,09,23,03,56,5.40
2008,09,23,03,57,5.40
2008,09,23,03,58,5.40
2008,09,23,03,59,5.30
2008,09,23,04,00,5.30
2008,09,23,04,01,5.30
2008,09,23,04,02,5.30
2008,09,23,04,03,5.30
2008,09,23,04,04,5.30
2008,09,23,04,05,5.30
2008,09,23,04,06,5.30
2008,09,23,04,07,5.30
2008,09,23,04,08,5.30
2008,09,23,04,09,5.30
2008,09,23,04,10,5.20
2008,09,23,04,11,5.20
2008,09,23,04,12,5.20
2008,09,23,04,13,5.10
2008,09,23,04,14,5.10
2008,09,23,04,15,5.10
2008,09,23,04,16,5.10
2008,09,23,04,17,5.10
2008,09,23,04,18,5.10
2008,09,23,04,19,5.10
2008,09,23,04,20,5.00
2008,09,23,04,21,5.00
2008,09,23,04,22,5.00
2008,09,23,04,23,4.90
2008,09,23,04,24,4.90
2008,09,23,04,25,4.90
2008,09,23,04,26,4.90
2008,09,23,04,27,4.90
2008,09,23,04,28,4.80
2008,09,23,04,29,4.80
2008,09,23,04,30,4.80
2008,09,23,04,31,4.80
2008,09,23,04,32,4.80
2008,09,23,04,33,4.80
2008,09,23,04,34,4.80
2008,09,23,04,35,4.80
2008,09,23,04,36,4.80
2008,09,23,04,37,4.80
2008,09,23,04,38,4.80
2008,09,23,04,39,4.80
2008,09,23,04,40,4.70
2008,09,23,04,41,4.80
2008,09,23,04,42,4.80
2008,09,23,04,43,4.80
2008,09,23,04,44,4.80
2008,09,23,04,45,4.70
2008,09,23,04,46,4.70
2008,09,23,04,47,4.70
2008,09,23,04,48,4.70
2008,09,23,04,49,4.70
2008,09,23,04,50,4.70
2008,09,23,04,51,4.70
2008,09,23,04,52,4.70
2008,09,23,04,53,4.70
2008,09,23,04,54,4.70
2008,09,23,04,55,4.70
2008,09,23,04,56,4.70
2008,09,23,04,57,4.70
2008,09,23,04,58,4.70
2008,09,23,04,59,4.70
2008,09,23,05,00,4.70
2008,09,23,05,01,4.70
2008,09,23,05,02,4.80
2008,09,23,05,03,4.80
2008,09,23,05,04,4.80
2008,09,23,05,05,4.80
2008,09,23,05,06,4.80
2008,09,23,05,07,4.70
2008,09,23,05,08,4.70
2008,09,23,05,09,4.70
2008,09,23,05,10,4.70
2008,09,23,05,11,4.70
2008,09,23,05,12,4.70
2008,09,23,05,13,4.70
2008,09,23,05,14,4.60
2008,09,23,05,15,4.60
2008,09,23,05,16,4.60
2008,09,23,05,17,4.60
2008,09,23,05,18,4.60
2008,09,23,05,19,4.60
2008,09,23,05,20,4.60
2008,09,23,05,21,4.60
2008,09,23,05,22,4.60
2008,09,23,05,23,4.60
2008,09,23,05,24,4.60
2008,09,23,05,25,4.60
2008,09,23,05,26,4.60
2008,09,23,05,27,4.60
2008,09,23,05,28,4.50
2008,09,23,05,29,4.50
2008,09,23,05,30,4.50
2008,09,23,05,31,4.50
2008,09,23,05,32,4.50
2008,09,23,05,33,4.50
2008,09,23,05,34,4.50
2008,09,23,05,35,4.50
2008,09,23,05,36,4.50
2008,09,23,05,37,4.50
2008,09,23,05,38,4.50
2008,09,23,05,39,4.60
2008,09,23,05,40,4.60
2008,09,23,05,41,4.60
2008,09,23,05,42,4.60
2008,09,23,05,43,4.70
2008,09,23,05,44,4.70
2008,09,23,05,45,4.60
2008,09,23,05,46,4.60
2008,09,23,05,47,4.60
2008,09,23,05,48,4.60
2008,09,23,05,49,4.60
2008,09,23,05,50,4.60
2008,09,23,05,51,4.60
2008,09,23,05,52,4.50
2008,09,23,05,53,4.50
2008,09,23,05,54,4.50
2008,09,23,05,55,4.40
2008,09,23,05,56,4.40
2008,09,23,05,57,4.30
2008,09,23,05,58,4.30
2008,09,23,05,59,4.30
2008,09,23,06,00,4.30
2008,09,23,06,01,4.20
2008,09,23,06,02,4.20
2008,09,23,06,03,4.20
2008,09,23,06,04,4.20
2008,09,23,06,05,4.20
2008,09,23,06,06,4.20
2008,09,23,06,07,4.10
2008,09,23,06,08,4.10
2008,09,23,06,09,4.10
2008,09,23,06,10,4.10
2008,09,23,06,11,4.10
2008,09,23,06,12,4.10
2008,09,23,06,13,4.10
2008,09,23,06,14,4.10
2008,09,23,06,15,4.00
2008,09,23,06,16,4.00
2008,09,23,06,17,4.00
2008,09,23,06,18,4.00
2008,09,23,06,19,4.00
2008,09,23,06,20,4.00
2008,09,23,06,21,4.00
2008,09,23,06,22,4.00
2008,09,23,06,23,4.00
2008,09,23,06,24,4.00
2008,09,23,06,25,4.00
2008,09,23,06,26,3.90
2008,09,23,06,27,3.90
2008,09,23,06,28,3.90
2008,09,23,06,29,4.00
2008,09,23,06,30,4.00
2008,09,23,06,31,3.90
2008,09,23,06,32,3.90
2008,09,23,06,33,3.90
2008,09,23,06,34,3.90
2008,09,23,06,35,3.90
2008,09,23,06,36,3.90
2008,09,23,06,37,3.90
2008,09,23,06,38,3.90
2008,09,23,06,39,3.90
2008,09,23,06,40,3.90
2008,09,23,06,41,3.90
2008,09,23,06,42,3.90
2008,09,23,06,43,3.90
2008,09,23,06,44,3.90
2008,09,23,06,45,3.90
2008,09,23,06,46,3.90
2008,09,23,06,47,3.90
2008,09,23,06,48,3.90
2008,09,23,06,49,3.90
2008,09,23,06,50,3.90
2008,09,23,06,51,3.90
2008,09,23,06,52,3.90
2008,09,23,06,53,3.90
2008,09,23,06,54,3.90
2008,09,23,06,55,3.90
2008,09,23,06,56,4.00
2008,09,23,06,57,3.90
2008,09,23,06,58,3.90
2008,09,23,06,59,3.90
2008,09,23,07,00,3.90
2008,09,23,07,01,3.90
2008,09,23,07,02,3.90
2008,09,23,07,03,3.90
2008,09,23,07,04,3.90
2008,09,23,07,05,3.90
2008,09,23,07,06,3.90
2008,09,23,07,07,3.90
2008,09,23,07,08,3.90
2008,09,23,07,09,3.90
2008,09,23,07,10,3.90
2008,09,23,07,11,3.90
2008,09,23,07,12,3.90
2008,09,23,07,13,4.00
2008,09,23,07,14,4.00
2008,09,23,07,15,4.00
2008,09,23,07,16,4.00
2008,09,23,07,17,4.00
2008,09,23,07,18,4.00
2008,09,23,07,19,4.00
2008,09,23,07,20,4.00
2008,09,23,07,21,4.10
2008,09,23,07,22,4.10
2008,09,23,07,23,4.10
2008,09,23,07,24,4.10
2008,09,23,07,25,4.10
2008,09,23,07,26,4.10
2008,09,23,07,27,4.10
2008,09,23,07,28,4.10
2008,09,23,07,29,4.20
2008,09,23,07,30,4.20
2008,09,23,07,31,4.20
2008,09,23,07,32,4.20
2008,09,23,07,33,4.30
2008,09,23,07,34,4.30
2008,09,23,07,35,4.30
2008,09,23,07,36,4.30
2008,09,23,07,37,4.30
2008,09,23,07,38,4.40
2008,09,23,07,39,4.40
2008,09,23,07,40,4.40
2008,09,23,07,41,4.40
2008,09,23,07,42,4.50
2008,09,23,07,43,4.50
2008,09,23,07,44,4.50
2008,09,23,07,45,4.60
2008,09,23,07,46,4.60
2008,09,23,07,47,4.60
2008,09,23,07,48,4.60
2008,09,23,07,49,4.60
2008,09,23,07,50,4.60
2008,09,23,07,51,4.60
2008,09,23,07,52,4.70
2008,09,23,07,53,4.70
2008,09,23,07,54,4.70
2008,09,23,07,55,4.70
2008,09,23,07,56,4.80
2008,09,23,07,57,4.80
2008,09,23,07,58,4.80
2008,09,23,07,59,4.80
2008,09,23,08,00,4.90
2008,09,23,08,01,4.90
2008,09,23,08,02,4.90
2008,09,23,08,03,4.90
2008,09,23,08,04,4.90
2008,09,23,08,05,4.90
2008,09,23,08,06,4.90
2008,09,23,08,07,4.90
2008,09,23,08,08,4.90
2008,09,23,08,09,4.90
2008,09,23,08,10,4.90
2008,09,23,08,11,4.90
2008,09,23,08,12,4.90
2008,09,23,08,13,5.00
2008,09,23,08,14,5.00
2008,09,23,08,15,5.00
2008,09,23,08,16,5.00
2008,09,23,08,17,5.10
2008,09,23,08,18,5.10
2008,09,23,08,19,5.10
2008,09,23,08,20,5.10
2008,09,23,08,21,5.10
2008,09,23,08,22,5.20
2008,09,23,08,23,5.20
2008,09,23,08,24,5.20
2008,09,23,08,25,5.30
2008,09,23,08,26,5.30
2008,09,23,08,27,5.40
2008,09,23,08,28,5.40
2008,09,23,08,29,5.50
2008,09,23,08,30,5.50
2008,09,23,08,31,5.60
2008,09,23,08,32,5.70
2008,09,23,08,33,5.70
2008,09,23,08,34,5.80
2008,09,23,08,35,5.80
2008,09,23,08,36,5.90
2008,09,23,08,37,5.90
2008,09,23,08,38,5.90
2008,09,23,08,39,6.00
2008,09,23,08,40,6.00
2008,09,23,08,41,6.10
2008,09,23,08,42,6.20
2008,09,23,08,43,6.20
2008,09,23,08,44,6.30
2008,09,23,08,45,6.30
2008,09,23,08,46,6.40
2008,09,23,08,47,6.40
2008,09,23,08,48,6.50
2008,09,23,08,49,6.60
2008,09,23,08,50,6.60
2008,09,23,08,51,6.70
2008,09,23,08,52,6.80
2008,09,23,08,53,6.90
2008,09,23,08,54,7.00
2008,09,23,08,55,7.10
2008,09,23,08,56,7.20
2008,09,23,08,57,7.20
2008,09,23,08,58,7.30
2008,09,23,08,59,7.40
2008,09,23,09,00,7.50
2008,09,23,09,01,7.60
2008,09,23,09,02,7.70
2008,09,23,09,03,7.80
2008,09,23,09,04,8.00
2008,09,23,09,05,8.00
2008,09,23,09,06,8.10
2008,09,23,09,07,8.20
2008,09,23,09,08,8.30
2008,09,23,09,09,8.50
2008,09,23,09,10,8.60
2008,09,23,09,11,8.80
2008,09,23,09,12,8.90
2008,09,23,09,13,9.00
2008,09,23,09,14,9.10
2008,09,23,09,15,9.20
2008,09,23,09,16,9.30
2008,09,23,09,17,9.40
2008,09,23,09,18,9.40
2008,09,23,09,19,9.50
2008,09,23,09,20,9.50
2008,09,23,09,21,9.60
2008,09,23,09,22,9.60
2008,09,23,09,23,9.70
2008,09,23,09,24,9.80
2008,09,23,09,25,9.80
2008,09,23,09,26,9.90
2008,09,23,09,27,9.90
2008,09,23,09,28,9.90
2008,09,23,09,29,10.00
2008,09,23,09,30,10.10
2008,09,23,09,31,10.10
2008,09,23,09,32,10.20
2008,09,23,09,33,10.20
2008,09,23,09,34,10.30
2008,09,23,09,35,10.40
2008,09,23,09,36,10.50
2008,09,23,09,37,10.60
2008,09,23,09,38,10.70
2008,09,23,09,39,10.90
2008,09,23,09,40,10.90
2008,09,23,09,41,11.00
2008,09,23,09,42,11.10
2008,09,23,09,43,11.10
2008,09,23,09,44,11.20
2008,09,23,09,45,11.20
2008,09,23,09,46,11.20
2008,09,23,09,47,11.30
2008,09,23,09,48,11.30
2008,09,23,09,49,11.40
2008,09,23,09,50,11.40
2008,09,23,09,51,11.50
2008,09,23,09,52,11.60
2008,09,23,09,53,11.70
2008,09,23,09,54,11.70
2008,09,23,09,55,11.80
2008,09,23,09,56,11.80
2008,09,23,09,57,11.90
2008,09,23,09,58,11.90
2008,09,23,09,59,12.00
2008,09,23,10,00,12.10
2008,09,23,10,01,12.10
2008,09,23,10,02,12.20
2008,09,23,10,03,12.20
2008,09,23,10,04,12.20
2008,09,23,10,05,12.20
2008,09,23,10,06,12.20
2008,09,23,10,07,12.20
2008,09,23,10,08,12.20
2008,09,23,10,09,12.20
2008,09,23,10,10,12.20
2008,09,23,10,11,12.10
2008,09,23,10,12,12.10
2008,09,23,10,13,12.10
2008,09,23,10,14,12.10
2008,09,23,10,15,12.10
2008,09,23,10,16,12.20
2008,09,23,10,17,12.10
2008,09,23,10,18,12.10
2008,09,23,10,19,12.10
2008,09,23,10,20,12.10
2008,09,23,10,21,12.10
2008,09,23,10,22,12.20
2008,09,23,10,23,12.20
2008,09,23,10,24,12.20
2008,09,23,10,25,12.20
2008,09,23,10,26,12.20
2008,09,23,10,27,12.20
2008,09,23,10,28,12.20
2008,09,23,10,29,12.20
2008,09,23,10,30,12.10
2008,09,23,10,31,12.10
2008,09,23,10,32,12.10
2008,09,23,10,33,12.20
2008,09,23,10,34,12.20
2008,09,23,10,35,12.20
2008,09,23,10,36,12.10
2008,09,23,10,37,12.10
2008,09,23,10,38,12.10
2008,09,23,10,39,12.10
2008,09,23,10,40,12.20
2008,09,23,10,41,12.20
2008,09,23,10,42,12.20
2008,09,23,10,43,12.30
2008,09,23,10,44,12.40
2008,09,23,10,45,12.50
2008,09,23,10,46,12.60
2008,09,23,10,47,12.60
2008,09,23,10,48,12.60
2008,09,23,10,49,12.60
2008,09,23,10,50,12.60
2008,09,23,10,51,12.60
2008,09,23,10,52,12.60
2008,09,23,10,53,12.50
2008,09,23,10,54,12.40
2008,09,23,10,55,12.30
2008,09,23,10,56,12.30
2008,09,23,10,57,12.30
2008,09,23,10,58,12.30
2008,09,23,10,59,12.30
2008,09,23,11,00,12.30
2008,09,23,11,01,12.30
2008,09,23,11,02,12.20
2008,09,23,11,03,12.20
2008,09,23,11,04,12.20
2008,09,23,11,05,12.20
2008,09,23,11,06,12.20
2008,09,23,11,07,12.20
2008,09,23,11,08,12.20
2008,09,23,11,09,12.30
2008,09,23,11,10,12.30
2008,09,23,11,11,12.30
2008,09,23,11,12,12.20
2008,09,23,11,13,12.30
2008,09,23,11,14,12.30
2008,09,23,11,15,12.40
2008,09,23,11,16,12.40
2008,09,23,11,17,12.40
2008,09,23,11,18,12.40
2008,09,23,11,19,12.40
2008,09,23,11,20,12.30
2008,09,23,11,21,12.30
2008,09,23,11,22,12.30
2008,09,23,11,23,12.30
2008,09,23,11,24,12.30
2008,09,23,11,25,12.30
2008,09,23,11,26,12.20
2008,09,23,11,27,12.20
2008,09,23,11,28,12.20
2008,09,23,11,29,12.20
2008,09,23,11,30,12.20
2008,09,23,11,31,12.20
2008,09,23,11,32,12.30
2008,09,23,11,33,12.40
2008,09,23,11,34,12.50
2008,09,23,11,35,12.60
2008,09,23,11,36,12.70
2008,09,23,11,37,12.60
2008,09,23,11,38,12.60
2008,09,23,11,39,12.50
2008,09,23,11,40,12.40
2008,09,23,11,41,12.30
2008,09,23,11,42,12.30
2008,09,23,11,43,12.30
2008,09,23,11,44,12.30
2008,09,23,11,45,12.30
2008,09,23,11,46,12.30
2008,09,23,11,47,12.20
2008,09,23,11,48,12.20
2008,09,23,11,49,12.20
2008,09,23,11,50,12.20
2008,09,23,11,51,12.30
2008,09,23,11,52,12.30
2008,09,23,11,53,12.40
2008,09,23,11,54,12.50
2008,09,23,11,55,12.60
2008,09,23,11,56,12.60
2008,09,23,11,57,12.60
2008,09,23,11,58,12.60
2008,09,23,11,59,12.60
2008,09,23,12,00,12.70
2008,09,23,12,01,12.80
2008,09,23,12,02,12.90
2008,09,23,12,03,13.00
2008,09,23,12,04,13.00
2008,09,23,12,05,13.00
2008,09,23,12,06,13.10
2008,09,23,12,07,13.10
2008,09,23,12,08,13.20
2008,09,23,12,09,13.30
2008,09,23,12,10,13.40
2008,09,23,12,11,13.50
2008,09,23,12,12,13.60
2008,09,23,12,13,13.50
2008,09,23,12,14,13.50
2008,09,23,12,15,13.50
2008,09,23,12,16,13.60
2008,09,23,12,17,13.60
2008,09,23,12,18,13.80
2008,09,23,12,19,13.90
2008,09,23,12,20,14.00
2008,09,23,12,21,14.20
2008,09,23,12,22,14.20
2008,09,23,12,23,14.30
2008,09,23,12,24,14.30
2008,09,23,12,25,14.40
2008,09,23,12,26,14.30
2008,09,23,12,27,14.30
2008,09,23,12,28,14.20
2008,09,23,12,29,14.20
2008,09,23,12,30,14.20
2008,09,23,12,31,14.30
2008,09,23,12,32,14.30
2008,09,23,12,33,14.30
2008,09,23,12,34,14.40
2008,09,23,12,35,14.40
2008,09,23,12,36,14.40
2008,09,23,12,37,14.40
2008,09,23,12,38,14.40
2008,09,23,12,39,14.50
2008,09,23,12,40,14.60
2008,09,23,12,41,14.60
2008,09,23,12,42,14.60
2008,09,23,12,43,14.40
2008,09,23,12,44,14.40
2008,09,23,12,45,14.40
2008,09,23,12,46,14.50
2008,09,23,12,47,14.50
2008,09,23,12,48,14.60
2008,09,23,12,49,14.70
2008,09,23,12,50,14.80
2008,09,23,12,51,14.70
2008,09,23,12,52,14.70
2008,09,23,12,53,14.80
2008,09,23,12,54,14.80
2008,09,23,12,55,15.00
2008,09,23,12,56,15.00
2008,09,23,12,57,15.00
2008,09,23,12,58,15.00
2008,09,23,12,59,15.00
2008,09,23,13,00,15.00
2008,09,23,13,01,15.00
2008,09,23,13,02,15.00
2008,09,23,13,03,15.00
2008,09,23,13,04,15.00
2008,09,23,13,05,15.00
2008,09,23,13,06,15.00
2008,09,23,13,07,15.00
2008,09,23,13,08,14.90
2008,09,23,13,09,14.90
2008,09,23,13,10,15.00
2008,09,23,13,11,15.00
2008,09,23,13,12,15.00
2008,09,23,13,13,15.00
2008,09,23,13,14,15.00
2008,09,23,13,15,15.00
2008,09,23,13,16,15.00
2008,09,23,13,17,15.00
2008,09,23,13,18,14.90
2008,09,23,13,19,14.90
2008,09,23,13,20,14.90
2008,09,23,13,21,14.80
2008,09,23,13,22,14.70
2008,09,23,13,23,14.60
2008,09,23,13,24,14.50
2008,09,23,13,25,14.60
2008,09,23,13,26,14.70
2008,09,23,13,27,14.80
2008,09,23,13,28,14.80
2008,09,23,13,29,14.80
2008,09,23,13,30,14.80
2008,09,23,13,31,14.70
2008,09,23,13,32,14.60
2008,09,23,13,33,14.60
2008,09,23,13,34,14.60
2008,09,23,13,35,14.60
2008,09,23,13,36,14.70
2008,09,23,13,37,14.70
2008,09,23,13,38,14.80
2008,09,23,13,39,14.70
2008,09,23,13,40,14.80
2008,09,23,13,41,14.80
2008,09,23,13,42,14.70
2008,09,23,13,43,14.50
2008,09,23,13,44,14.50
2008,09,23,13,45,14.50
2008,09,23,13,46,14.50
2008,09,23,13,47,14.60
2008,09,23,13,48,14.70
2008,09,23,13,49,14.70
2008,09,23,13,50,14.70
2008,09,23,13,51,14.70
2008,09,23,13,52,14.60
2008,09,23,13,53,14.60
2008,09,23,13,54,14.60
2008,09,23,13,55,14.50
2008,09,23,13,56,14.40
2008,09,23,13,57,14.40
2008,09,23,13,58,14.50
2008,09,23,13,59,14.60
2008,09,23,14,00,14.70
2008,09,23,14,01,14.70
2008,09,23,14,02,14.80
2008,09,23,14,03,14.80
2008,09,23,14,04,14.70
2008,09,23,14,05,14.60
2008,09,23,14,06,14.60
2008,09,23,14,07,14.70
2008,09,23,14,08,14.80
2008,09,23,14,09,14.80
2008,09,23,14,10,14.80
2008,09,23,14,11,14.90
2008,09,23,14,12,14.80
2008,09,23,14,13,14.70
2008,09,23,14,14,14.70
2008,09,23,14,15,14.60
2008,09,23,14,16,14.60
2008,09,23,14,17,14.70
2008,09,23,14,18,14.70
2008,09,23,14,19,14.80
2008,09,23,14,20,14.90
2008,09,23,14,21,15.00
2008,09,23,14,22,15.00
2008,09,23,14,23,15.00
2008,09,23,14,24,15.00
2008,09,23,14,25,15.00
2008,09,23,14,26,15.00
2008,09,23,14,27,15.00
2008,09,23,14,28,15.00
2008,09,23,14,29,15.00
2008,09,23,14,30,15.00
2008,09,23,14,31,15.00
2008,09,23,14,32,15.00
2008,09,23,14,33,15.00
2008,09,23,14,34,15.00
2008,09,23,14,35,15.00
2008,09,23,14,36,15.00
2008,09,23,14,37,15.00
2008,09,23,14,38,15.00
2008,09,23,14,39,15.00
2008,09,23,14,40,15.10
2008,09,23,14,41,15.10
2008,09,23,14,42,15.10
2008,09,23,14,43,15.10
2008,09,23,14,44,15.10
2008,09,23,14,45,15.10
2008,09,23,14,46,15.20
2008,09,23,14,47,15.30
2008,09,23,14,48,15.40
2008,09,23,14,49,15.30
2008,09,23,14,50,15.30
2008,09,23,14,51,15.30
2008,09,23,14,52,15.30
2008,09,23,14,53,15.40
2008,09,23,14,54,15.30
2008,09,23,14,55,15.20
2008,09,23,14,56,15.00
2008,09,23,14,57,15.00
2008,09,23,14,58,15.00
2008,09,23,14,59,15.00
2008,09,23,15,00,15.00
2008,09,23,15,01,15.00
2008,09,23,15,02,15.00
2008,09,23,15,03,15.00
2008,09,23,15,04,15.00
2008,09,23,15,05,15.00
2008,09,23,15,06,15.10
2008,09,23,15,07,15.10
2008,09,23,15,08,15.00
2008,09,23,15,09,15.00
2008,09,23,15,10,15.00
2008,09,23,15,11,15.00
2008,09,23,15,12,15.00
2008,09,23,15,13,15.00
2008,09,23,15,14,15.00
2008,09,23,15,15,15.00
2008,09,23,15,16,15.00
2008,09,23,15,17,15.00
2008,09,23,15,18,15.00
2008,09,23,15,19,15.00
2008,09,23,15,20,15.00
2008,09,23,15,21,15.00
2008,09,23,15,22,15.00
2008,09,23,15,23,15.00
2008,09,23,15,24,15.00
2008,09,23,15,25,15.00
2008,09,23,15,26,15.00
2008,09,23,15,27,15.00
2008,09,23,15,28,15.00
2008,09,23,15,29,15.00
2008,09,23,15,30,15.00
2008,09,23,15,31,15.00
2008,09,23,15,32,15.00
2008,09,23,15,33,14.90
2008,09,23,15,34,14.80
2008,09,23,15,35,14.80
2008,09,23,15,36,14.80
2008,09,23,15,37,14.80
2008,09,23,15,38,14.80
2008,09,23,15,39,14.70
2008,09,23,15,40,14.70
2008,09,23,15,41,14.70
2008,09,23,15,42,14.80
2008,09,23,15,43,14.80
2008,09,23,15,44,14.80
2008,09,23,15,45,14.80
2008,09,23,15,46,14.70
2008,09,23,15,47,14.70
2008,09,23,15,48,14.70
2008,09,23,15,49,14.70
2008,09,23,15,50,14.70
2008,09,23,15,51,14.70
2008,09,23,15,52,14.70
2008,09,23,15,53,14.70
2008,09,23,15,54,14.70
2008,09,23,15,55,14.70
2008,09,23,15,56,14.70
2008,09,23,15,57,14.70
2008,09,23,15,58,14.70
2008,09,23,15,59,14.70
2008,09,23,16,00,14.70
2008,09,23,16,01,14.70
2008,09,23,16,02,14.70
2008,09,23,16,03,14.60
2008,09,23,16,04,14.60
2008,09,23,16,05,14.60
2008,09,23,16,06,14.60
2008,09,23,16,07,14.60
2008,09,23,16,08,14.70
2008,09,23,16,09,14.70
2008,09,23,16,10,14.70
2008,09,23,16,11,14.70
2008,09,23,16,12,14.80
2008,09,23,16,13,14.80
2008,09,23,16,14,14.80
2008,09,23,16,15,14.90
2008,09,23,16,16,14.90
2008,09,23,16,17,14.90
2008,09,23,16,18,15.00
2008,09,23,16,19,15.00
2008,09,23,16,20,15.00
2008,09,23,16,21,15.00
2008,09,23,16,22,15.00
2008,09,23,16,23,15.00
2008,09,23,16,24,15.00
2008,09,23,16,25,15.00
2008,09,23,16,26,15.00
2008,09,23,16,27,15.00
2008,09,23,16,28,15.00
2008,09,23,16,29,15.00
2008,09,23,16,30,15.00
2008,09,23,16,31,15.10
2008,09,23,16,32,15.10
2008,09,23,16,33,15.10
2008,09,23,16,34,15.10
2008,09,23,16,35,15.10
2008,09,23,16,36,15.20
2008,09,23,16,37,15.20
2008,09,23,16,38,15.20
2008,09,23,16,39,15.20
2008,09,23,16,40,15.30
2008,09,23,16,41,15.30
2008,09,23,16,42,15.20
2008,09,23,16,43,15.20
2008,09,23,16,44,15.10
2008,09,23,16,45,15.10
2008,09,23,16,46,15.10
2008,09,23,16,47,15.10
2008,09,23,16,48,15.10
2008,09,23,16,49,15.10
2008,09,23,16,50,15.10
2008,09,23,16,51,15.10
2008,09,23,16,52,15.20
2008,09,23,16,53,15.20
2008,09,23,16,54,15.20
2008,09,23,16,55,15.20
2008,09,23,16,56,15.20
2008,09,23,16,57,15.20
2008,09,23,16,58,15.30
2008,09,23,16,59,15.30
2008,09,23,17,00,15.30
2008,09,23,17,01,15.20
2008,09,23,17,02,15.20
2008,09,23,17,03,15.10
2008,09,23,17,04,15.10
2008,09,23,17,05,15.00
2008,09,23,17,06,15.00
2008,09,23,17,07,15.10
2008,09,23,17,08,15.10
2008,09,23,17,09,15.10
2008,09,23,17,10,15.00
2008,09,23,17,11,15.00
2008,09,23,17,12,15.00
2008,09,23,17,13,15.00
2008,09,23,17,14,15.00
2008,09,23,17,15,15.10
2008,09,23,17,16,15.10
2008,09,23,17,17,15.10
2008,09,23,17,18,15.00
2008,09,23,17,19,15.00
2008,09,23,17,20,15.10
2008,09,23,17,21,15.10
2008,09,23,17,22,15.20
2008,09,23,17,23,15.10
2008,09,23,17,24,15.10
2008,09,23,17,25,15.10
2008,09,23,17,26,15.00
2008,09,23,17,27,15.00
2008,09,23,17,28,15.00
2008,09,23,17,29,15.00
2008,09,23,17,30,15.00
2008,09,23,17,31,15.00
2008,09,23,17,32,15.00
2008,09,23,17,33,15.00
2008,09,23,17,34,15.00
2008,09,23,17,35,14.90
2008,09,23,17,36,14.90
2008,09,23,17,37,14.80
2008,09,23,17,38,14.80
2008,09,23,17,39,14.80
2008,09,23,17,40,14.90
2008,09,23,17,41,14.90
2008,09,23,17,42,14.90
2008,09,23,17,43,14.90